Blair, NE

2:07 PM CST on November 20, 2017 (GMT -0600)
Blair Municipal

Weather History for KBTA - January, 2013

Change the Weather History Date:

Sunday, January 20, 2013

  Actual Average (KOMA) Record (KOMA)
Temperature  
Mean Temperature 16 °F -  
Max Temperature 20 °F 33 °F 64 °F (1944)
Min Temperature 13 °F 12 °F -22 °F (1883)
Degree Days  
Heating Degree Days 48    
Moisture  
Dew Point 8 °F    
Average Humidity 69    
Maximum Humidity 80    
Minimum Humidity 55    
Precipitation  
Precipitation 0.00 in - - ()
Sea Level Pressure  
Sea Level Pressure 30.35 in    
Wind  
Wind Speed 9 mph (NNW)    
Max Wind Speed 14 mph    
Max Gust Speed 17 mph    
Visibility 10 miles    
Events Snow    
Averages and records for this station are not official NWS values.
T = Trace of Precipitation, MM = Missing Value Source: NWS Daily Summary

Daily Weather History Graph

Daily Weather History Graph

Search for Another Location

Airport or City:

Trip Planner

Search our weather history database for the weather conditions in past years. The results will help you decide how hot, cold, wet, or windy it might be!

Date:

Astronomy

Jan. 20, 2013 Rise Set
Actual Time 7:45 AM CST 5:26 PM CST
Civil Twilight 7:15 AM CST 5:56 PM CST
Nautical Twilight 6:41 AM CST 6:30 PM CST
Astronomical Twilight 6:08 AM CST 7:03 PM CST
Moon 12:28 PM CST 2:18 AM CST
Length of Visible Light 10h 40m
Length of Day
9h 40m
Waxing Gibbous, 66% of the Moon is Illuminated
Jan 20
Waxing Gibbous
Jan 26
Full
Feb 3
Last Quarter
Feb 10
New
Feb 17
First Quarter

Hourly Weather History & Observations

Time (CST) Temp. Windchill Dew Point Humidity Pressure Visibility Wind Dir Wind Speed Gust Speed Precip Events Conditions
12:15 AM 20.3 °F 8.3 °F 10.6 °F 66% 30.33 in 10.0 mi NW 11.5 mph - N/A   Clear
12:35 AM 19.4 °F 7.2 °F 8.6 °F 63% 30.34 in 10.0 mi NW 11.5 mph - N/A   Clear
12:55 AM 18.9 °F 5.9 °F 8.1 °F 63% 30.33 in 10.0 mi NNW 12.7 mph - N/A   Clear
1:15 AM 18.5 °F 4.9 °F 8.2 °F 64% 30.31 in 10.0 mi North 13.8 mph - N/A   Clear
1:35 AM 18.1 °F 5.0 °F 7.5 °F 63% 30.30 in 10.0 mi North 12.7 mph - N/A   Clear
1:55 AM 17.6 °F 4.3 °F 8.6 °F 68% 30.30 in 10.0 mi North 12.7 mph 17.3 mph N/A   Clear
2:15 AM 17.2 °F 6.0 °F 7.7 °F 66% 30.32 in 10.0 mi NNW 9.2 mph - N/A   Clear
2:35 AM 16.7 °F 5.3 °F 7.5 °F 67% 30.32 in 10.0 mi NNW 9.2 mph - N/A   Clear
2:55 AM 16.7 °F 6.2 °F 7.3 °F 67% 30.32 in 10.0 mi North 8.1 mph - N/A   Clear
3:15 AM 16.5 °F 4.3 °F 7.5 °F 68% 30.32 in 10.0 mi NNW 10.4 mph - N/A   Clear
3:35 AM 16.2 °F 4.7 °F 7.0 °F 67% 30.31 in 10.0 mi NNW 9.2 mph - N/A   Clear
3:55 AM 16.2 °F 3.2 °F 6.8 °F 67% 30.30 in 10.0 mi North 11.5 mph - N/A   Clear
4:15 AM 15.8 °F 4.2 °F 6.6 °F 67% 30.30 in 10.0 mi North 9.2 mph - N/A   Clear
4:35 AM 15.4 °F 4.6 °F 6.6 °F 68% 30.31 in 10.0 mi NNW 8.1 mph - N/A   Clear
4:55 AM 15.4 °F 6.8 °F 7.2 °F 70% 30.31 in 10.0 mi NNW 5.8 mph - N/A   Clear
5:15 AM 15.4 °F 6.8 °F 6.8 °F 69% 30.31 in 10.0 mi NNW 5.8 mph - N/A   Clear
5:35 AM 15.3 °F 4.4 °F 6.6 °F 69% 30.30 in 10.0 mi North 8.1 mph - N/A   Clear
5:55 AM 15.1 °F 5.2 °F 7.2 °F 71% 30.31 in 10.0 mi NNW 6.9 mph - N/A   Clear
6:15 AM 14.9 °F 6.1 °F 7.2 °F 71% 30.31 in 10.0 mi North 5.8 mph - N/A   Clear
6:35 AM 14.9 °F 4.0 °F 6.1 °F 68% 30.31 in 10.0 mi North 8.1 mph - N/A   Clear
6:55 AM 14.4 °F 5.5 °F 5.9 °F 69% 30.32 in 10.0 mi NNW 5.8 mph - N/A   Clear
7:15 AM 14.9 °F 9.2 °F 7.2 °F 71% 30.32 in 10.0 mi North 3.5 mph - N/A   Clear
7:35 AM 14.9 °F 6.1 °F 7.5 °F 73% 30.33 in 10.0 mi NNE 5.8 mph - N/A   Clear
7:55 AM 14.5 °F 7.1 °F 7.0 °F 72% 30.32 in 10.0 mi North 4.6 mph - N/A   Clear
8:15 AM 14.7 °F 9.0 °F 7.0 °F 71% 30.32 in 10.0 mi North 3.5 mph - N/A   Clear
8:35 AM 14.9 °F 5.0 °F 7.5 °F 73% 30.33 in 10.0 mi North 6.9 mph - N/A   Clear
8:55 AM 15.6 °F 7.0 °F 7.7 °F 71% 30.34 in 10.0 mi NNE 5.8 mph - N/A   Clear
9:15 AM 15.8 °F 4.2 °F 7.3 °F 69% 30.35 in 10.0 mi North 9.2 mph - N/A   Scattered Clouds
9:35 AM 16.5 °F 5.1 °F 6.6 °F 65% 30.35 in 10.0 mi NNE 9.2 mph - N/A   Scattered Clouds
9:55 AM 16.3 °F 4.1 °F 5.4 °F 62% 30.35 in 10.0 mi North 10.4 mph - N/A   Mostly Cloudy
10:15 AM 16.7 °F 4.5 °F 4.5 °F 59% 30.35 in 10.0 mi North 10.4 mph - N/A   Overcast
10:35 AM 17.1 °F 5.8 °F 5.2 °F 60% 30.37 in 10.0 mi North 9.2 mph - N/A   Overcast
10:55 AM 16.7 °F 4.5 °F 5.7 °F 62% 30.38 in 10.0 mi NNW 10.4 mph - N/A   Overcast
11:15 AM 17.4 °F 7.1 °F 5.5 °F 60% 30.40 in 10.0 mi NNW 8.1 mph - N/A   Overcast
11:35 AM 18.1 °F 8.9 °F 6.1 °F 59% 30.40 in 10.0 mi NNW 6.9 mph - N/A   Overcast
11:55 AM 18.5 °F 9.3 °F 4.6 °F 55% 30.40 in 10.0 mi NNW 6.9 mph - N/A   Overcast
12:15 PM 18.5 °F 9.3 °F 5.4 °F 57% 30.39 in 10.0 mi North 6.9 mph - N/A   Overcast
12:55 PM 18.5 °F 9.3 °F 5.5 °F 57% 30.37 in 10.0 mi North 6.9 mph - N/A   Overcast
1:15 PM 18.5 °F 6.8 °F 5.5 °F 57% 30.37 in 10.0 mi North 10.4 mph - N/A   Overcast
1:35 PM 18.5 °F 9.3 °F 4.8 °F 55% 30.36 in 10.0 mi North 6.9 mph - N/A   Overcast
1:55 PM 18.5 °F 7.5 °F 5.7 °F 58% 30.36 in 10.0 mi North 9.2 mph - N/A   Overcast
2:15 PM 18.5 °F 7.5 °F 7.3 °F 62% 30.36 in 10.0 mi North 9.2 mph - N/A   Overcast
2:35 PM 18.9 °F 7.2 °F 9.5 °F 67% 30.37 in 10.0 mi North 10.4 mph - N/A   Overcast
2:55 PM 18.1 °F 7.1 °F 10.4 °F 72% 30.37 in 10.0 mi NNW 9.2 mph - N/A   Overcast
3:15 PM 18.7 °F 7.0 °F 11.7 °F 74% 30.36 in 10.0 mi NNW 10.4 mph - N/A   Overcast
3:35 PM 18.9 °F 5.9 °F 10.8 °F 71% 30.36 in 10.0 mi NW 12.7 mph - N/A   Overcast
3:55 PM 18.5 °F 7.5 °F 10.6 °F 71% 30.36 in 10.0 mi North 9.2 mph - N/A   Overcast
4:15 PM 19.0 °F 7.5 °F 11.3 °F 72% 30.36 in 10.0 mi North 10.4 mph - N/A Snow Light Snow
4:35 PM 18.5 °F 6.8 °F 10.9 °F 72% 30.36 in 10.0 mi NNW 10.4 mph - N/A Snow Light Snow
4:55 PM 18.3 °F 6.6 °F 10.6 °F 72% 30.37 in 10.0 mi North 10.4 mph - N/A Snow Light Snow
5:15 PM 17.4 °F 7.1 °F 10.4 °F 74% 30.36 in 10.0 mi NNW 8.1 mph - N/A   Scattered Clouds
5:35 PM 16.7 °F 8.3 °F 10.4 °F 76% 30.37 in 10.0 mi NNW 5.8 mph - N/A   Clear
5:55 PM 16.2 °F 5.5 °F 10.4 °F 78% 30.37 in 10.0 mi NNW 8.1 mph - N/A   Clear
6:15 PM 15.6 °F 10.0 °F 10.4 °F 80% 30.37 in 10.0 mi NW 3.5 mph - N/A   Clear
6:35 PM 15.1 °F 5.2 °F 9.7 °F 79% 30.38 in 10.0 mi NNW 6.9 mph - N/A   Clear
6:55 PM 14.9 °F 9.2 °F 9.5 °F 79% 30.37 in 10.0 mi NNW 3.5 mph - N/A   Clear
7:15 PM 14.7 °F - 9.5 °F 80% 30.37 in 10.0 mi Calm Calm - N/A   Clear
7:35 PM 14.5 °F 3.6 °F 9.5 °F 80% 30.38 in 10.0 mi NNW 8.1 mph - N/A   Clear
7:55 PM 14.9 °F 3.1 °F 8.8 °F 77% 30.38 in 10.0 mi North 9.2 mph - N/A   Clear
8:15 PM 13.8 °F 1.8 °F 8.6 °F 80% 30.38 in 10.0 mi North 9.2 mph - N/A   Clear
8:35 PM 13.6 °F 3.5 °F 8.2 °F 79% 30.38 in 10.0 mi North 6.9 mph - N/A   Scattered Clouds
8:55 PM 14.4 °F 0.2 °F 8.6 °F 78% 30.38 in 10.0 mi North 12.7 mph - N/A   Mostly Cloudy
9:15 PM 14.4 °F 2.4 °F 8.4 °F 77% 30.38 in 10.0 mi North 9.2 mph - N/A Snow Light Snow
9:35 PM 14.5 °F 8.8 °F 8.6 °F 77% 30.38 in 10.0 mi WNW 3.5 mph - N/A   Overcast
9:55 PM 14.9 °F 6.1 °F 8.6 °F 76% 30.37 in 10.0 mi NW 5.8 mph - N/A   Overcast
10:15 PM 15.1 °F 5.2 °F 9.1 °F 77% 30.37 in 10.0 mi NW 6.9 mph - N/A   Overcast
10:35 PM 15.4 °F 6.8 °F 9.3 °F 77% 30.37 in 10.0 mi WNW 5.8 mph - N/A   Overcast
10:55 PM 15.6 °F 8.3 °F 9.7 °F 77% 30.37 in 10.0 mi NW 4.6 mph - N/A   Overcast
11:15 PM 15.6 °F 1.8 °F 8.2 °F 73% 30.37 in 10.0 mi NW 12.7 mph - N/A   Scattered Clouds
11:35 PM 15.4 °F 6.8 °F 8.4 °F 74% 30.37 in 10.0 mi WNW 5.8 mph - N/A   Mostly Cloudy
11:55 PM 15.8 °F 2.1 °F 8.6 °F 73% 30.37 in 10.0 mi NW 12.7 mph 17.3 mph N/A   Overcast